Overview Statistics Trail Chart Weather Telemetry Raw packets
 

This is the latest recevied weather packets stored in our database for station/object KI4NG. If no packets are shown the sender has not sent any weather packets the latest 10 day(s).

<< 79 80 81 82 83 84 85 >>
Time Temp. Humidity Pressure Rain* Wind** Luminosity Snow
1788044970 27.22° C 72% 1020.9 hPa 0 mm - 55 W/m² -
1788044669 27.22° C 72% 1021.1 hPa 0 mm - 65 W/m² -
1788044369 27.22° C 72% 1021.1 hPa 0 mm - 66 W/m² -
1788044064 27.22° C 70% 1021 hPa 0 mm - 62 W/m² -
1788043760 27.22° C 71% 1020.9 hPa 0 mm - 66 W/m² -
1788043460 27.22° C 69% 1021 hPa 0 mm - 55 W/m² -
1788043155 27.22° C 70% 1020.8 hPa 0 mm - 50 W/m² -
1788042850 27.78° C 70% 1021 hPa 0 mm - 51 W/m² -
1788042549 27.78° C 70% 1021 hPa 0 mm - 62 W/m² -
1788042244 27.78° C 72% 1020.9 hPa 0 mm - 81 W/m² -
1788041944 27.78° C 70% 1021 hPa 0 mm - 78 W/m² -
1788041640 27.22° C 70% 1020.8 hPa 0 mm - 70 W/m² -
1788041334 27.22° C 68% 1020.9 hPa 0 mm - 64 W/m² -
1788041028 27.78° C 70% 1020.9 hPa 0 mm - 62 W/m² -
1788040727 27.78° C 69% 1020.9 hPa 0 mm - 50 W/m² -
1788040421 27.78° C 70% 1020.9 hPa 0 mm - 64 W/m² -
1788040117 28.33° C 67% 1020.9 hPa 0 mm - 74 W/m² -
1788039812 29.44° C 65% 1021 hPa 0 mm - 84 W/m² -
1788039506 29.44° C 62% 1021.1 hPa 0 mm - 100 W/m² -
1788039204 29.44° C 66% 1021 hPa 0 mm - 104 W/m² -
1788038896 30° C 64% 1020.8 hPa 0 mm - 111 W/m² -
1788038592 31.11° C 61% 1020.9 hPa 0 mm - 119 W/m² -
1788038291 31.11° C 59% 1021 hPa 0 mm - 454 W/m² -
1788037987 31.11° C 59% 1020.9 hPa 0 mm - 416 W/m² -
1788037687 31.67° C 56% 1021.2 hPa 0 mm - 489 W/m² -

* Rain latest hour (hover to see other rain measurements)
** Current wind speed in m/s (hover to see current wind gust speed)